Moosic, PA

7:07 PM EDT on July 24, 2016 (GMT -0400)
Wilkes-Barre-Scranton International

Weather History for KAVP - October, 2012

Change the Weather History Date:

Monday, October 15, 2012

  Actual Average Record
Temperature  
Mean Temperature 59 °F 51 °F  
Max Temperature 67 °F 61 °F 81 °F (1947)
Min Temperature 50 °F 41 °F 29 °F (2006)
Degree Days  
Heating Degree Days 6 14  
Month to date heating degree days 165 175  
Since 1 July heating degree days 282 337  
Cooling Degree Days 0 0  
Month to date cooling degree days 3 0  
Year to date cooling degree days 864 576  
Growing Degree Days 10 (Base 50)    
Moisture  
Dew Point 53 °F    
Average Humidity 79    
Maximum Humidity 97    
Minimum Humidity 60    
Precipitation  
Precipitation 0.07 in 0.11 in 2.62 in (2014)
Month to date precipitation 1.13 1.73  
Year to date precipitation 28.48 30.83  
Sea Level Pressure  
Sea Level Pressure 29.71 in    
Wind  
Wind Speed 6 mph (SW)    
Max Wind Speed 15 mph    
Max Gust Speed 20 mph    
Visibility 9 miles    
Events Rain    
T = Trace of Precipitation, MM = Missing Value Source: NWS Daily Summary

Daily Weather History Graph

Daily Weather History Graph

Search for Another Location

Airport or City:

Trip Planner

Search our weather history database for the weather conditions in past years. The results will help you decide how hot, cold, wet, or windy it might be!

Date:

Astronomy

Oct. 15, 2012 Rise Set
Actual Time 7:15 AM EDT 6:21 PM EDT
Civil Twilight 6:47 AM EDT 6:49 PM EDT
Nautical Twilight 6:15 AM EDT 7:21 PM EDT
Astronomical Twilight 5:43 AM EDT 7:53 PM EDT
Moon 7:23 AM EDT (10/15) 6:18 PM EDT (10/15)
Length of Visible Light 12h 01m
Length of Day
11h 06m
New Moon, 0% of the Moon is Illuminated
Oct 15
New Moon
Oct 21
First Quarter
Oct 29
Full
Nov 6
Last Quarter
Nov 13
New

Hourly Weather History & Observations

Time (EDT) Temp. Dew Point Humidity Pressure Visibility Wind Dir Wind Speed Gust Speed Precip Events Conditions
12:54 AM 60.1 °F 50.0 °F 69% 29.86 in 10.0 mi SW 9.2 mph 16.1 mph N/A   Clear
1:54 AM 61.0 °F 51.1 °F 70% 29.81 in 10.0 mi Variable 3.5 mph - N/A   Clear
2:54 AM 61.0 °F 52.0 °F 72% 29.78 in 10.0 mi South 8.1 mph - N/A   Clear
3:54 AM 61.0 °F 53.1 °F 75% 29.75 in 10.0 mi Variable 6.9 mph - N/A   Clear
4:54 AM 61.0 °F 54.0 °F 78% 29.73 in 10.0 mi South 9.2 mph - 0.00 in   Scattered Clouds
5:54 AM 63.0 °F 54.0 °F 72% 29.70 in 10.0 mi Variable 4.6 mph - N/A   Mostly Cloudy
6:54 AM 62.1 °F 54.0 °F 75% 29.70 in 10.0 mi Variable 3.5 mph - N/A   Scattered Clouds
7:35 AM 60.8 °F 53.6 °F 77% 29.71 in 10.0 mi Calm Calm - N/A   Mostly Cloudy
7:54 AM 60.1 °F 54.0 °F 80% 29.70 in 10.0 mi Calm Calm - N/A   Mostly Cloudy
8:14 AM 60.8 °F 55.4 °F 82% 29.72 in 10.0 mi Calm Calm - N/A   Mostly Cloudy
8:51 AM 64.4 °F 55.4 °F 73% 29.72 in 10.0 mi WSW 8.1 mph - N/A   Mostly Cloudy
8:54 AM 64.0 °F 55.9 °F 75% 29.71 in 10.0 mi SW 6.9 mph - N/A   Mostly Cloudy
9:05 AM 64.4 °F 55.4 °F 73% 29.72 in 10.0 mi SW 10.4 mph - N/A   Overcast
9:54 AM 66.0 °F 55.9 °F 70% 29.70 in 10.0 mi SW 9.2 mph - N/A   Overcast
10:54 AM 64.9 °F 55.9 °F 73% 29.70 in 10.0 mi SW 9.2 mph 17.3 mph 0.00 in Rain Light Rain
11:06 AM 64.4 °F 55.4 °F 73% 29.71 in 8.0 mi SW 9.2 mph - 0.00 in Rain Light Rain
11:23 AM 62.6 °F 57.2 °F 82% 29.72 in 4.0 mi SW 10.4 mph 17.3 mph 0.01 in Rain Light Rain
11:39 AM 62.6 °F 57.2 °F 82% 29.72 in 2.0 mi SW 6.9 mph - 0.04 in Rain Rain
11:51 AM 60.8 °F 59.0 °F 94% 29.71 in 3.0 mi SSW 3.5 mph - 0.05 in Rain Rain
11:52 AM 61.0 °F 59.0 °F 93% 29.70 in 3.0 mi Variable 3.5 mph - 0.05 in Rain Rain
12:54 PM 64.0 °F 57.9 °F 80% 29.68 in 10.0 mi SW 10.4 mph - 0.02 in   Mostly Cloudy
1:31 PM 64.4 °F 55.4 °F 73% 29.68 in 10.0 mi SW 9.2 mph 16.1 mph 0.00 in   Mostly Cloudy
1:54 PM 64.9 °F 55.9 °F 73% 29.65 in 10.0 mi SW 9.2 mph - 0.00 in   Mostly Cloudy
2:34 PM 64.4 °F 55.4 °F 73% 29.67 in 10.0 mi SW 8.1 mph - 0.00 in Rain Light Rain
2:54 PM 63.0 °F 57.0 °F 81% 29.66 in 9.0 mi WSW 11.5 mph 17.3 mph 0.00 in Rain Light Rain
3:54 PM 62.1 °F 55.0 °F 78% 29.65 in 10.0 mi SSW 4.6 mph - 0.00 in   Overcast
4:54 PM 62.1 °F 51.1 °F 67% 29.65 in 10.0 mi WSW 8.1 mph - N/A   Partly Cloudy
5:54 PM 61.0 °F 46.9 °F 60% 29.65 in 10.0 mi WSW 6.9 mph - N/A   Clear
6:54 PM 59.0 °F 46.0 °F 62% 29.66 in 10.0 mi SW 6.9 mph - N/A   Partly Cloudy
7:54 PM 57.0 °F 46.0 °F 67% 29.67 in 10.0 mi SSW 3.5 mph - N/A   Mostly Cloudy
8:54 PM 55.0 °F 45.0 °F 69% 29.69 in 10.0 mi Calm Calm - N/A   Clear
9:54 PM 55.0 °F 42.1 °F 62% 29.71 in 10.0 mi NW 6.9 mph - N/A   Clear
10:54 PM 53.1 °F 42.1 °F 66% 29.73 in 10.0 mi West 5.8 mph - N/A   Scattered Clouds
11:54 PM 51.1 °F 42.1 °F 71% 29.74 in 10.0 mi SSW 4.6 mph - N/A   Scattered Clouds